| time (UTC) | temp C | wind direction | speed KPH | gust KPH | rain 1hr cm | rain 24hr cm | rain mn cm | humidity % | barometer mb |
| 20260906121600 | 25 | 321 | 1.6 | 8.0 | 0.00 | 0.00 | 0.00 | 89 | 1008.8 |
| 20260906120104 | 25 | 329 | 3.2 | 9.7 | 0.00 | 0.00 | 0.00 | 89 | 1008.6 |
| 20260906114557 | 25 | 329 | 1.6 | 6.4 | 0.00 | 0.00 | 0.00 | 89 | 1008.6 |
| 20260906113103 | 25 | 329 | 0.0 | 4.8 | 0.00 | 0.00 | 0.00 | 89 | 1008.6 |
| 20260906111555 | 25 | 329 | 1.6 | 4.8 | 0.00 | 0.00 | 0.00 | 89 | 1008.5 |
| 20260906110052 | 25 | 329 | 0.0 | 6.4 | 0.00 | 0.00 | 0.00 | 88 | 1008.7 |
| 20260906104608 | 25 | 329 | 1.6 | 6.4 | 0.00 | 0.00 | 0.00 | 88 | 1008.8 |
| 20260906103050 | 25 | 329 | 1.6 | 6.4 | 0.00 | 0.00 | 0.00 | 88 | 1008.8 |
| 20260906101549 | 25 | 329 | 1.6 | 4.8 | 0.00 | 0.00 | 0.00 | 88 | 1008.8 |
| 20260906100048 | 25 | 329 | 1.6 | 4.8 | 0.00 | 0.00 | 0.00 | 87 | 1008.9 |
| 20260906094617 | 25 | 329 | 1.6 | 6.4 | 0.00 | 0.00 | 0.00 | 87 | 1008.9 |
| 20260906093056 | 25 | 329 | 0.0 | 4.8 | 0.00 | 0.00 | 0.00 | 87 | 1008.9 |
| 20260906091548 | 25 | 329 | 0.0 | 3.2 | 0.00 | 0.00 | 0.00 | 87 | 1009.0 |
| 20260906090045 | 25 | 329 | 0.0 | 3.2 | 0.00 | 0.00 | 0.00 | 87 | 1009.2 |
| 20260906084544 | 25 | 329 | 0.0 | 3.2 | 0.00 | 0.00 | 0.00 | 87 | 1009.3 |
| 20260906083041 | 25 | 329 | 1.6 | 4.8 | 0.00 | 0.00 | 0.00 | 88 | 1009.4 |
| 20260906081548 | 25 | 329 | 1.6 | 4.8 | 0.00 | 0.00 | 0.00 | 88 | 1009.6 |
| 20260906080046 | 25 | 329 | 1.6 | 9.7 | 0.00 | 0.00 | 0.00 | 88 | 1009.6 |
| 20260906074537 | 25 | 329 | 0.0 | 3.2 | 0.00 | 0.00 | 0.00 | 88 | 1009.7 |
| 20260906073034 | 25 | 329 | 3.2 | 9.7 | 0.00 | 0.00 | 0.00 | 88 | 1009.9 |
| 20260906071532 | 25 | 336 | 0.0 | 6.4 | 0.00 | 0.00 | 0.00 | 88 | 1010.2 |
| 20260906070030 | 25 | 336 | 1.6 | 4.8 | 0.00 | 0.00 | 0.00 | 88 | 1010.3 |
| 20260906064528 | 26 | 336 | 1.6 | 4.8 | 0.00 | 0.00 | 0.00 | 87 | 1010.2 |
| 20260906063032 | 26 | 336 | 0.0 | 6.4 | 0.00 | 0.00 | 0.00 | 87 | 1010.4 |
| 20260906061535 | 26 | 337 | 1.6 | 4.8 | 0.00 | 0.00 | 0.00 | 87 | 1010.8 |
| 20260906060027 | 26 | 337 | 1.6 | 6.4 | 0.00 | 0.00 | 0.00 | 86 | 1010.9 |
| 20260906054525 | 26 | 340 | 3.2 | 8.0 | 0.00 | 0.00 | 0.00 | 85 | 1011.1 |
| 20260906053025 | 26 | 338 | 1.6 | 4.8 | 0.00 | 0.00 | 0.00 | 84 | 1011.1 |
| 20260906051524 | 27 | 338 | 1.6 | 6.4 | 0.00 | 0.00 | 0.00 | 84 | 1011.2 |
| 20260906050024 | 27 | 337 | 1.6 | 8.0 | 0.00 | 0.00 | 0.00 | 84 | 1011.2 |
| 20260906044529 | 26 | 340 | 1.6 | 6.4 | 0.00 | 0.00 | 0.00 | 84 | 1011.1 |
| 20260906043024 | 26 | 340 | 1.6 | 6.4 | 0.00 | 0.00 | 0.00 | 83 | 1011.2 |
| 20260906041523 | 26 | 340 | 1.6 | 4.8 | 0.00 | 0.00 | 0.00 | 82 | 1011.1 |
| 20260906040027 | 26 | 340 | 1.6 | 6.4 | 0.00 | 0.00 | 0.00 | 82 | 1010.8 |
| 20260906034522 | 26 | 340 | 1.6 | 3.2 | 0.00 | 0.00 | 0.00 | 83 | 1010.4 |
| 20260906033022 | 26 | 340 | 1.6 | 8.0 | 0.00 | 0.00 | 0.00 | 83 | 1010.3 |
| 20260906031537 | 26 | 341 | 3.2 | 6.4 | 0.00 | 0.00 | 0.00 | 83 | 1010.1 |
| 20260906030021 | 26 | 341 | 1.6 | 8.0 | 0.00 | 0.00 | 0.00 | 82 | 1009.7 |
| 20260906024522 | 26 | 329 | 0.0 | 4.8 | 0.00 | 0.00 | 0.00 | 82 | 1009.4 |
| 20260906023020 | 26 | 329 | 1.6 | 4.8 | 0.00 | 0.00 | 0.00 | 81 | 1009.5 |
| 20260906021519 | 26 | 328 | 1.6 | 8.0 | 0.00 | 0.00 | 0.00 | 81 | 1009.3 |
| 20260906020030 | 26 | 340 | 1.6 | 8.0 | 0.00 | 0.00 | 0.00 | 81 | 1009.2 |
| 20260906014518 | 26 | 346 | 1.6 | 6.4 | 0.00 | 0.00 | 0.00 | 80 | 1009.0 |
| 20260906013017 | 26 | 344 | 1.6 | 8.0 | 0.00 | 0.00 | 0.00 | 78 | 1008.8 |
| 20260906011517 | 26 | 343 | 3.2 | 9.7 | 0.00 | 0.00 | 0.00 | 79 | 1009.0 |
| 20260906010016 | 26 | 342 | 3.2 | 12.9 | 0.00 | 0.00 | 0.00 | 79 | 1008.9 |
| 20260906004516 | 26 | 342 | 1.6 | 9.7 | 0.00 | 0.00 | 0.00 | 80 | 1008.8 |
| 20260906003023 | 26 | 347 | 4.8 | 12.9 | 0.00 | 0.00 | 0.00 | 80 | 1009.3 |
| 20260906001515 | 26 | 346 | 4.8 | 12.9 | 0.00 | 0.00 | 0.00 | 80 | 1009.1 |
| 20260906000014 | 26 | 325 | 4.8 | 16.1 | 0.00 | 0.00 | 0.00 | 79 | 1008.8 |
| 20260905234514 | 27 | 298 | 4.8 | 30.6 | 0.00 | 0.00 | 0.00 | 76 | 1009.0 |
| 20260905233014 | 29 | 331 | 8.0 | 24.1 | 0.00 | 0.00 | 0.00 | 69 | 1009.1 |
| 20260905231512 | 32 | 319 | 11.3 | 27.4 | 0.00 | 0.00 | 0.00 | 62 | 1008.9 |
| 20260905230012 | 32 | 183 | 9.7 | 19.3 | 0.00 | 0.00 | 0.00 | 65 | 1007.9 |
| 20260905224509 | 32 | 163 | 9.7 | 20.9 | 0.00 | 0.00 | 0.00 | 60 | 1007.6 |
| 20260905223028 | 33 | 121 | 11.3 | 20.9 | 0.00 | 0.00 | 0.00 | 59 | 1007.5 |
| 20260905221522 | 35 | 149 | 11.3 | 25.7 | 0.00 | 0.00 | 0.00 | 58 | 1007.3 |
| 20260905220006 | 34 | 146 | 11.3 | 27.4 | 0.00 | 0.00 | 0.00 | 61 | 1007.6 |
| 20260905214505 | 34 | 115 | 12.9 | 25.7 | 0.00 | 0.00 | 0.00 | 63 | 1007.8 |
| 20260905213003 | 35 | 132 | 9.7 | 19.3 | 0.00 | 0.00 | 0.00 | 63 | 1008.0 |
| 20260905211559 | 35 | 148 | 8.0 | 20.9 | 0.00 | 0.00 | 0.00 | 64 | 1008.3 |
| 20260905210108 | 35 | 169 | 6.4 | 24.1 | 0.00 | 0.00 | 0.00 | 61 | 1008.5 |
| 20260905204553 | 35 | 181 | 11.3 | 19.3 | 0.00 | 0.00 | 0.00 | 61 | 1008.6 |
| 20260905203051 | 35 | 199 | 9.7 | 16.1 | 0.00 | 0.00 | 0.00 | 60 | 1009.1 |
| 20260905201550 | 34 | 157 | 9.7 | 16.1 | 0.00 | 0.00 | 0.00 | 60 | 1009.3 |
| 20260905200057 | 33 | 202 | 8.0 | 16.1 | 0.00 | 0.00 | 0.00 | 60 | 1009.7 |
| 20260905194541 | 32 | 156 | 11.3 | 19.3 | 0.00 | 0.00 | 0.00 | 62 | 1009.9 |
| 20260905193039 | 32 | 57 | 3.2 | 8.0 | 0.00 | 0.00 | 0.00 | 65 | 1010.1 |
| 20260905191540 | 32 | 57 | 4.8 | 8.0 | 0.00 | 0.00 | 0.00 | 65 | 1010.3 |
| 20260905190032 | 32 | 53 | 3.2 | 9.7 | 0.00 | 0.00 | 0.00 | 65 | 1010.4 |
| 20260905184535 | 33 | 33 | 4.8 | 12.9 | 0.00 | 0.00 | 0.00 | 61 | 1010.7 |
| 20260905183031 | 33 | 24 | 4.8 | 9.7 | 0.00 | 0.00 | 0.00 | 58 | 1010.9 |
| 20260905181530 | 35 | 18 | 3.2 | 6.4 | 0.00 | 0.00 | 0.00 | 56 | 1011.0 |
| 20260905180033 | 35 | 19 | 1.6 | 8.0 | 0.00 | 0.00 | 0.00 | 56 | 1010.9 |
| 20260905174525 | 34 | 5 | 3.2 | 8.0 | 0.00 | 0.00 | 0.00 | 58 | 1011.1 |
| 20260905173025 | 33 | 5 | 3.2 | 8.0 | 0.00 | 0.00 | 0.00 | 62 | 1011.2 |
| 20260905171538 | 33 | 5 | 1.6 | 9.7 | 0.00 | 0.00 | 0.00 | 59 | 1011.3 |
| 20260905170028 | 34 | 346 | 3.2 | 12.9 | 0.00 | 0.00 | 0.00 | 61 | 1011.5 |
| 20260905164518 | 33 | 314 | 1.6 | 6.4 | 0.00 | 0.00 | 0.00 | 64 | 1011.4 |
| 20260905163017 | 32 | 304 | 3.2 | 8.0 | 0.00 | 0.00 | 0.00 | 64 | 1011.4 |
| 20260905161511 | 31 | 304 | 1.6 | 6.4 | 0.00 | 0.00 | 0.00 | 70 | 1011.3 |
| 20260905160005 | 29 | 304 | 3.2 | 8.0 | 0.00 | 0.00 | 0.00 | 77 | 1011.4 |
| 20260905154601 | 28 | 301 | 1.6 | 6.4 | 0.00 | 0.00 | 0.00 | 81 | 1011.5 |
| 20260905153100 | 27 | 301 | 1.6 | 8.0 | 0.00 | 0.00 | 0.00 | 83 | 1011.6 |
| 20260905151559 | 27 | 300 | 1.6 | 8.0 | 0.00 | 0.00 | 0.00 | 85 | 1011.7 |
| 20260905150059 | 27 | 294 | 1.6 | 8.0 | 0.00 | 0.00 | 0.00 | 86 | 1011.6 |
| 20260905144558 | 26 | 293 | 1.6 | 4.8 | 0.00 | 0.00 | 0.00 | 86 | 1011.5 |
| 20260905143056 | 26 | 293 | 0.0 | 6.4 | 0.00 | 0.00 | 0.00 | 87 | 1011.4 |
| 20260905141556 | 26 | 287 | 3.2 | 6.4 | 0.00 | 0.00 | 0.00 | 87 | 1011.3 |
| 20260905140053 | 26 | 287 | 1.6 | 4.8 | 0.00 | 0.00 | 0.00 | 87 | 1011.0 |
| 20260905134557 | 26 | 287 | 1.6 | 4.8 | 0.00 | 0.00 | 0.00 | 87 | 1010.9 |
| 20260905133053 | 26 | 286 | 1.6 | 4.8 | 0.00 | 0.00 | 0.00 | 87 | 1010.5 |
| 20260905131553 | 26 | 286 | 1.6 | 6.4 | 0.00 | 0.00 | 0.00 | 86 | 1010.4 |
| 20260905130050 | 26 | 281 | 0.0 | 4.8 | 0.00 | 0.00 | 0.00 | 86 | 1010.1 |
| 20260905124550 | 26 | 216 | 1.6 | 4.8 | 0.00 | 0.00 | 0.00 | 86 | 1009.7 |
| 20260905123047 | 26 | 216 | 1.6 | 4.8 | 0.00 | 0.00 | 0.00 | 86 | 1009.8 |